Time,TemperatureF,DewpointF,PressureIn,WindDirection,WindDirectionDegrees,WindSpeedMPH,WindSpeedGustMPH,Humidity,HourlyPrecipIn,Conditions,Clouds,dailyrainin,SolarRadiationWatts/m^2,SoftwareType,DateUTC
2013-03-11 00:03:00,37.2,33.7,29.78,West,265,3.5,3.5,87,0.00,RA,SCT,0.00,0.0,WeatherDisplay:10.37,2013-03-11 05:03:00,
2013-03-11 00:09:00,36.9,33.6,29.78,West,265,3.5,3.5,88,0.00,RA,SCT,0.00,0.0,WeatherDisplay:10.37,2013-03-11 05:09:00,
2013-03-11 00:14:00,36.9,33.6,29.78,North,355,3.5,3.5,88,0.00,OVC,SCT,0.00,0.0,WeatherDisplay:10.37,2013-03-11 05:14:00,
2013-03-11 00:19:00,36.7,33.7,29.78,WSW,243,3.5,3.5,89,0.00,OVC,SCT,0.00,0.0,WeatherDisplay:10.37,2013-03-11 05:19:00,
2013-03-11 00:24:00,36.5,33.3,29.78,West,265,3.5,3.5,88,0.00,OVC,SCT,0.00,0.0,WeatherDisplay:10.37,2013-03-11 05:24:00,
2013-03-11 00:29:00,36.3,33.4,29.78,WSW,243,3.5,3.5,89,0.00,OVC,SCT,0.00,0.0,WeatherDisplay:10.37,2013-03-11 05:29:00,
2013-03-11 00:34:00,36.1,33.2,29.78,SW,220,3.5,3.5,89,0.00,OVC,SCT,0.00,0.0,WeatherDisplay:10.37,2013-03-11 05:34:00,
2013-03-11 00:39:00,36.1,33.2,29.77,SSW,197,3.5,3.5,89,0.00,OVC,SCT,0.00,0.0,WeatherDisplay:10.37,2013-03-11 05:39:00,
2013-03-11 00:44:00,36.0,32.8,29.77,WNW,287,3.5,3.5,88,0.00,OVC,SCT,0.00,0.0,WeatherDisplay:10.37,2013-03-11 05:44:00,
2013-03-11 00:49:00,36.0,32.5,29.77,WSW,243,3.5,3.5,87,0.00,OVC,SCT,0.00,0.0,WeatherDisplay:10.37,2013-03-11 05:49:00,
2013-03-11 00:54:00,36.0,32.8,29.77,North,355,3.5,3.5,88,0.00,OVC,SCT,0.00,0.0,WeatherDisplay:10.37,2013-03-11 05:54:00,
2013-03-11 00:59:00,36.0,32.5,29.77,West,265,3.5,3.5,87,0.00,OVC,SCT,0.00,0.0,WeatherDisplay:10.37,2013-03-11 05:59:00,
2013-03-11 01:04:00,35.8,32.3,29.77,WSW,243,3.5,3.5,87,0.00,OVC,SCT,0.00,0.0,WeatherDisplay:10.37,2013-03-11 06:04:00,
2013-03-11 01:09:00,35.8,32.3,29.78,SW,220,3.5,3.5,87,0.00,OVC,SCT,0.00,0.0,WeatherDisplay:10.37,2013-03-11 06:09:00,
2013-03-11 01:14:00,35.6,32.1,29.77,WSW,243,3.5,3.5,87,0.00,OVC,SCT,0.00,0.0,WeatherDisplay:10.37,2013-03-11 06:14:00,
2013-03-11 01:19:00,35.6,32.1,29.77,West,265,3.5,3.5,87,0.00,OVC,SCT,0.00,0.0,WeatherDisplay:10.37,2013-03-11 06:19:00,
2013-03-11 01:24:00,35.4,32.2,29.77,WSW,243,3.5,3.5,88,0.00,OVC,SCT,0.00,0.0,WeatherDisplay:10.37,2013-03-11 06:24:00,
2013-03-11 01:29:00,35.4,32.2,29.78,West,265,3.5,3.5,88,0.00,OVC,SCT,0.00,0.0,WeatherDisplay:10.37,2013-03-11 06:29:00,
2013-03-11 01:34:00,35.1,31.9,29.78,WNW,287,3.5,3.5,88,0.00,OVC,SCT,0.00,0.0,WeatherDisplay:10.37,2013-03-11 06:34:00,
2013-03-11 01:39:00,35.2,32.0,29.78,West,265,3.5,3.5,88,0.00,OVC,SCT,0.00,0.0,WeatherDisplay:10.37,2013-03-11 06:39:00,
2013-03-11 01:44:00,35.4,31.9,29.78,West,265,3.5,3.5,87,0.00,OVC,SCT,0.00,0.0,WeatherDisplay:10.37,2013-03-11 06:44:00,
2013-03-11 01:49:00,35.2,31.5,29.78,WNW,287,3.5,3.5,86,0.00,OVC,SCT,0.00,0.0,WeatherDisplay:10.37,2013-03-11 06:49:00,
2013-03-11 01:54:00,35.2,31.2,29.78,WSW,243,3.5,3.5,85,0.00,OVC,SCT,0.00,0.0,WeatherDisplay:10.37,2013-03-11 06:54:00,
2013-03-11 01:59:00,34.9,30.8,29.78,WNW,287,3.5,3.5,85,0.00,OVC,SCT,0.00,0.0,WeatherDisplay:10.37,2013-03-11 06:59:00,
2013-03-11 02:04:00,34.9,31.4,29.78,West,265,3.5,3.5,87,0.00,OVC,SCT,0.00,0.0,WeatherDisplay:10.37,2013-03-11 07:04:00,
2013-03-11 02:09:00,34.9,31.1,29.78,WSW,243,3.5,3.5,86,0.00,OVC,SCT,0.00,0.0,WeatherDisplay:10.37,2013-03-11 07:09:00,
2013-03-11 02:15:00,34.9,31.1,29.78,West,269,3.0,3.0,86,0.00,OVC,SCT,0.00,0.0,WeatherDisplay:10.37,2013-03-11 07:15:00,
2013-03-11 02:20:00,34.9,31.4,29.78,West,266,3.0,3.0,87,0.00,OVC,SCT,0.00,0.0,WeatherDisplay:10.37,2013-03-11 07:20:00,
2013-03-11 02:25:00,34.9,31.1,29.78,West,266,3.0,3.0,86,0.00,OVC,SCT,0.00,0.0,WeatherDisplay:10.37,2013-03-11 07:25:00,
2013-03-11 02:30:00,34.9,30.8,29.78,West,262,3.0,3.0,85,0.00,OVC,SCT,0.00,0.0,WeatherDisplay:10.37,2013-03-11 07:30:00,
2013-03-11 02:35:00,34.7,30.6,29.78,WSW,257,3.0,3.0,85,0.00,OVC,SCT,0.00,0.0,WeatherDisplay:10.37,2013-03-11 07:35:00,
2013-03-11 02:40:00,34.5,30.2,29.77,West,259,3.0,3.0,84,0.00,OVC,SCT,0.00,0.0,WeatherDisplay:10.37,2013-03-11 07:40:00,
2013-03-11 02:45:00,34.5,30.8,29.77,West,260,3.0,3.0,86,0.00,OVC,SCT,0.00,0.0,WeatherDisplay:10.37,2013-03-11 07:45:00,
2013-03-11 02:50:00,34.5,30.2,29.76,WSW,255,3.0,3.0,84,0.00,OVC,SCT,0.00,0.0,WeatherDisplay:10.37,2013-03-11 07:50:00,
2013-03-11 02:55:00,34.3,30.0,29.76,WSW,252,3.0,3.0,84,0.00,OVC,SCT,0.00,0.0,WeatherDisplay:10.37,2013-03-11 07:55:00,
2013-03-11 03:00:00,34.2,30.2,29.76,WSW,255,3.0,3.0,85,0.00,OVC,SCT,0.00,0.0,WeatherDisplay:10.37,2013-03-11 08:00:00,
2013-03-11 03:05:00,34.2,30.2,29.76,WSW,254,3.0,3.0,85,0.00,OVC,SCT,0.00,0.0,WeatherDisplay:10.37,2013-03-11 08:05:00,
2013-03-11 03:10:00,34.2,30.1,29.76,West,268,3.0,3.0,85,0.00,OVC,SCT,0.00,0.0,WeatherDisplay:10.37,2013-03-11 08:10:00,
2013-03-11 03:15:00,34.3,30.3,29.75,West,275,3.0,3.0,85,0.00,OVC,SCT,0.00,0.0,WeatherDisplay:10.37,2013-03-11 08:15:00,
2013-03-11 03:20:00,34.5,30.4,29.76,West,274,3.0,3.0,85,0.00,OVC,SCT,0.00,0.0,WeatherDisplay:10.37,2013-03-11 08:20:00,
2013-03-11 03:25:00,34.4,30.4,29.76,West,265,3.0,3.0,85,0.00,OVC,SCT,0.00,0.0,WeatherDisplay:10.37,2013-03-11 08:25:00,
2013-03-11 03:30:00,34.3,29.9,29.75,West,264,3.0,3.0,84,0.00,OVC,SCT,0.00,0.0,WeatherDisplay:10.37,2013-03-11 08:30:00,
2013-03-11 03:35:00,34.2,29.9,29.76,West,269,3.0,3.0,84,0.00,OVC,SCT,0.00,0.0,WeatherDisplay:10.37,2013-03-11 08:35:00,
2013-03-11 03:40:00,34.2,30.1,29.76,West,259,3.0,3.0,85,0.00,OVC,SCT,0.00,0.0,WeatherDisplay:10.37,2013-03-11 08:40:00,
2013-03-11 03:45:00,34.2,30.1,29.76,West,259,3.0,3.0,85,0.00,OVC,SCT,0.00,0.0,WeatherDisplay:10.37,2013-03-11 08:45:00,
2013-03-11 03:50:00,34.2,29.8,29.76,West,265,3.5,3.5,84,0.00,OVC,SCT,0.00,0.0,WeatherDisplay:10.37,2013-03-11 08:50:00,
2013-03-11 03:55:00,34.0,29.7,29.76,WSW,243,3.5,3.5,84,0.00,OVC,SCT,0.00,0.0,WeatherDisplay:10.37,2013-03-11 08:55:00,
2013-03-11 04:00:00,34.0,29.7,29.76,WNW,287,3.5,3.5,84,0.00,OVC,SCT,0.00,0.0,WeatherDisplay:10.37,2013-03-11 09:00:00,
2013-03-11 04:05:00,34.0,29.9,29.76,West,265,3.5,3.5,85,0.00,OVC,SCT,0.00,0.0,WeatherDisplay:10.37,2013-03-11 09:05:00,
2013-03-11 04:10:00,34.0,29.7,29.76,WNW,287,3.5,3.5,84,0.00,OVC,SCT,0.00,0.0,WeatherDisplay:10.37,2013-03-11 09:10:00,
2013-03-11 04:15:00,34.2,29.8,29.76,WNW,287,3.5,3.5,84,0.00,OVC,SCT,0.00,0.0,WeatherDisplay:10.37,2013-03-11 09:15:00,
2013-03-11 04:20:00,34.0,29.7,29.76,West,265,3.5,3.5,84,0.00,OVC,SCT,0.00,0.0,WeatherDisplay:10.37,2013-03-11 09:20:00,
2013-03-11 04:25:00,34.0,29.9,29.76,West,265,3.5,3.5,85,0.00,OVC,SCT,0.00,0.0,WeatherDisplay:10.37,2013-03-11 09:25:00,
2013-03-11 04:30:00,34.0,29.7,29.76,WSW,243,3.5,3.5,84,0.00,OVC,SCT,0.00,0.0,WeatherDisplay:10.37,2013-03-11 09:30:00,
2013-03-11 04:35:00,34.0,30.2,29.76,WNW,287,3.5,3.5,86,0.00,OVC,SCT,0.00,0.0,WeatherDisplay:10.37,2013-03-11 09:35:00,
2013-03-11 04:40:00,34.2,30.4,29.77,NNW,333,3.5,3.5,86,0.00,OVC,SCT,0.00,0.0,WeatherDisplay:10.37,2013-03-11 09:40:00,
2013-03-11 04:45:00,34.0,29.7,29.77,West,265,3.5,3.5,84,0.00,OVC,SCT,0.00,0.0,WeatherDisplay:10.37,2013-03-11 09:45:00,
2013-03-11 04:50:00,34.0,29.7,29.77,West,265,3.5,3.5,84,0.00,OVC,SCT,0.00,0.0,WeatherDisplay:10.37,2013-03-11 09:50:00,
2013-03-11 04:55:00,33.8,29.8,29.78,West,265,3.5,3.5,85,0.00,OVC,SCT,0.00,0.0,WeatherDisplay:10.37,2013-03-11 09:55:00,
2013-03-11 05:00:00,34.0,29.7,29.77,WSW,243,3.5,3.5,84,0.00,OVC,SCT,0.00,0.0,WeatherDisplay:10.37,2013-03-11 10:00:00,
2013-03-11 05:05:00,33.8,29.5,29.77,West,265,3.5,3.5,84,0.00,OVC,SCT,0.00,0.0,WeatherDisplay:10.37,2013-03-11 10:05:00,
2013-03-11 05:10:00,33.8,29.5,29.78,West,265,3.5,3.5,84,0.00,OVC,SCT,0.00,0.0,WeatherDisplay:10.37,2013-03-11 10:10:00,
2013-03-11 05:15:00,33.4,29.1,29.78,West,265,3.5,3.5,84,0.00,OVC,SCT,0.00,0.0,WeatherDisplay:10.37,2013-03-11 10:15:00,
2013-03-11 05:20:00,33.6,29.6,29.78,West,265,3.5,3.5,85,0.00,OVC,SCT,0.00,0.0,WeatherDisplay:10.37,2013-03-11 10:20:00,
2013-03-11 05:25:00,33.6,29.3,29.78,SW,220,3.5,3.5,84,0.00,OVC,SCT,0.00,0.0,WeatherDisplay:10.37,2013-03-11 10:25:00,
2013-03-11 05:30:00,33.4,29.1,29.78,West,265,3.5,3.5,84,0.00,OVC,SCT,0.00,0.0,WeatherDisplay:10.37,2013-03-11 10:30:00,
2013-03-11 05:35:00,33.4,29.4,29.78,West,265,3.5,3.5,85,0.00,OVC,SCT,0.00,0.0,WeatherDisplay:10.37,2013-03-11 10:35:00,
2013-03-11 05:40:00,33.3,29.8,29.78,WSW,243,3.5,3.5,87,0.00,OVC,SCT,0.00,0.0,WeatherDisplay:10.37,2013-03-11 10:40:00,
2013-03-11 05:45:00,33.3,29.5,29.78,West,265,3.5,3.5,86,0.00,OVC,SCT,0.00,0.0,WeatherDisplay:10.37,2013-03-11 10:45:00,
2013-03-11 05:50:00,33.3,29.8,29.78,WSW,243,3.5,3.5,87,0.00,OVC,SCT,0.00,0.0,WeatherDisplay:10.37,2013-03-11 10:50:00,
2013-03-11 05:55:00,33.3,29.5,29.78,West,265,3.5,3.5,86,0.00,OVC,SCT,0.00,0.0,WeatherDisplay:10.37,2013-03-11 10:55:00,
2013-03-11 06:00:00,33.3,29.8,29.78,SW,220,3.5,3.5,87,0.00,OVC,SCT,0.00,0.0,WeatherDisplay:10.37,2013-03-11 11:00:00,
2013-03-11 06:05:00,33.4,30.0,29.78,WSW,243,3.5,3.5,87,0.00,OVC,SCT,0.00,0.0,WeatherDisplay:10.37,2013-03-11 11:05:00,
2013-03-11 06:11:00,33.3,29.5,29.78,WSW,243,3.5,3.5,86,0.00,OVC,SCT,0.00,0.0,WeatherDisplay:10.37,2013-03-11 11:11:00,
2013-03-11 06:16:00,33.1,29.3,29.78,WSW,243,3.5,3.5,86,0.00,OVC,SCT,0.00,0.0,WeatherDisplay:10.37,2013-03-11 11:16:00,
2013-03-11 06:21:00,32.7,29.3,29.78,West,265,3.5,3.5,87,0.00,OVC,SCT,0.00,0.0,WeatherDisplay:10.37,2013-03-11 11:21:00,
2013-03-11 06:27:00,32.7,29.8,29.78,West,265,3.5,3.5,89,0.00,OVC,SCT,0.00,0.0,WeatherDisplay:10.37,2013-03-11 11:27:00,
2013-03-11 06:32:00,32.9,30.0,29.78,West,265,3.5,3.5,89,0.00,OVC,SCT,0.00,0.0,WeatherDisplay:10.37,2013-03-11 11:32:00,
2013-03-11 06:37:00,32.9,29.2,29.78,WSW,243,3.5,3.5,86,0.00,OVC,SCT,0.00,0.0,WeatherDisplay:10.37,2013-03-11 11:37:00,
2013-03-11 06:42:00,32.9,29.2,29.78,West,265,3.5,3.5,86,0.00,OVC,SCT,0.00,0.0,WeatherDisplay:10.37,2013-03-11 11:42:00,
2013-03-11 06:48:00,32.7,29.3,29.78,SW,220,3.5,3.5,87,0.00,OVC,SCT,0.00,0.0,WeatherDisplay:10.37,2013-03-11 11:48:00,
2013-03-11 06:53:00,32.7,29.3,29.78,West,265,3.5,3.5,87,0.00,OVC,SCT,0.00,0.0,WeatherDisplay:10.37,2013-03-11 11:53:00,
2013-03-11 06:58:00,32.7,29.3,29.78,West,265,3.5,3.5,87,0.00,OVC,SCT,0.00,0.0,WeatherDisplay:10.37,2013-03-11 11:58:00,
2013-03-11 07:03:00,32.7,29.3,29.77,WSW,243,3.5,3.5,87,0.00,OVC,SCT,0.00,0.0,WeatherDisplay:10.37,2013-03-11 12:03:00,
2013-03-11 07:08:00,32.5,29.4,29.78,West,265,3.5,3.5,88,0.00,OVC,SCT,0.00,0.0,WeatherDisplay:10.37,2013-03-11 12:08:00,
2013-03-11 07:14:00,32.5,29.4,29.78,WSW,243,3.5,3.5,88,0.00,OVC,SCT,0.00,0.0,WeatherDisplay:10.37,2013-03-11 12:14:00,
2013-03-11 07:19:00,32.4,29.2,29.77,West,265,3.5,3.5,88,0.00,OVC,SCT,0.00,0.0,WeatherDisplay:10.37,2013-03-11 12:19:00,
2013-03-11 07:24:00,32.5,29.4,29.78,West,265,3.5,3.5,88,0.00,OVC,SCT,0.00,0.0,WeatherDisplay:10.37,2013-03-11 12:24:00,
2013-03-11 07:29:00,32.5,29.7,29.78,West,265,3.5,3.5,89,0.00,OVC,SCT,0.00,0.0,WeatherDisplay:10.37,2013-03-11 12:29:00,
2013-03-11 07:34:00,32.7,30.1,29.78,WNW,287,3.5,3.5,90,0.00,OVC,SCT,0.00,0.0,WeatherDisplay:10.37,2013-03-11 12:34:00,
2013-03-11 07:39:00,32.7,29.6,29.78,WSW,243,3.5,3.5,88,0.00,OVC,SCT,0.00,0.0,WeatherDisplay:10.37,2013-03-11 12:39:00,
2013-03-11 07:44:00,32.7,29.6,29.78,WSW,243,3.5,3.5,88,0.00,OVC,SCT,0.00,0.0,WeatherDisplay:10.37,2013-03-11 12:44:00,
2013-03-11 07:49:00,32.7,29.0,29.78,WSW,243,3.5,3.5,86,0.00,OVC,SCT,0.00,0.0,WeatherDisplay:10.37,2013-03-11 12:49:00,
2013-03-11 07:54:00,32.4,28.6,29.78,West,265,3.5,3.5,86,0.00,OVC,SCT,0.00,0.0,WeatherDisplay:10.37,2013-03-11 12:54:00,
2013-03-11 07:59:00,32.5,29.1,29.78,West,265,3.5,3.5,87,0.00,OVC,SCT,0.00,0.0,WeatherDisplay:10.37,2013-03-11 12:59:00,
2013-03-11 08:04:00,32.4,28.9,29.78,WNW,287,3.5,3.5,87,0.00,OVC,SCT,0.00,0.0,WeatherDisplay:10.37,2013-03-11 13:04:00,
2013-03-11 08:09:00,32.4,28.9,29.79,West,265,3.5,3.5,87,0.00,OVC,SCT,0.00,0.0,WeatherDisplay:10.37,2013-03-11 13:09:00,
2013-03-11 08:14:00,32.4,29.2,29.79,WSW,243,3.5,3.5,88,0.00,OVC,SCT,0.00,0.0,WeatherDisplay:10.37,2013-03-11 13:14:00,
2013-03-11 08:20:00,32.4,28.9,29.79,SW,220,3.5,3.5,87,0.00,OVC,SCT,0.00,0.0,WeatherDisplay:10.37,2013-03-11 13:20:00,
2013-03-11 08:25:00,32.4,28.9,29.79,WNW,287,3.5,3.5,87,0.00,OVC,SCT,0.00,0.0,WeatherDisplay:10.37,2013-03-11 13:25:00,
2013-03-11 08:30:00,32.4,28.9,29.79,WNW,287,3.5,3.5,87,0.00,OVC,SCT,0.00,0.0,WeatherDisplay:10.37,2013-03-11 13:30:00,
2013-03-11 08:35:00,32.4,28.6,29.79,WNW,287,3.5,3.5,86,0.00,OVC,SCT,0.00,0.0,WeatherDisplay:10.37,2013-03-11 13:35:00,
2013-03-11 08:40:00,32.4,28.6,29.80,SW,220,3.5,3.5,86,0.00,OVC,SCT,0.00,0.0,WeatherDisplay:10.37,2013-03-11 13:40:00,
2013-03-11 08:45:00,32.4,29.2,29.80,NW,310,3.5,3.5,88,0.00,OVC,SCT,0.00,0.0,WeatherDisplay:10.37,2013-03-11 13:45:00,
2013-03-11 08:50:00,32.2,28.5,29.79,West,265,3.5,3.5,86,0.00,OVC,SCT,0.00,0.0,WeatherDisplay:10.37,2013-03-11 13:50:00,
2013-03-11 08:55:00,32.2,28.5,29.81,West,265,3.5,3.5,86,0.00,OVC,SCT,0.00,0.0,WeatherDisplay:10.37,2013-03-11 13:55:00,
2013-03-11 09:00:00,32.4,28.6,29.81,West,265,3.5,3.5,86,0.00,OVC,SCT,0.00,0.0,WeatherDisplay:10.37,2013-03-11 14:00:00,
2013-03-11 09:05:00,32.2,28.5,29.81,WNW,287,3.5,3.5,86,0.00,OVC,SCT,0.00,0.0,WeatherDisplay:10.37,2013-03-11 14:05:00,
2013-03-11 09:10:00,32.4,28.6,29.81,West,265,3.5,3.5,86,0.00,OVC,SCT,0.00,0.0,WeatherDisplay:10.37,2013-03-11 14:10:00,
2013-03-11 09:15:00,32.2,28.2,29.81,West,265,3.5,3.5,85,0.00,OVC,SCT,0.00,0.0,WeatherDisplay:10.37,2013-03-11 14:15:00,
2013-03-11 09:20:00,32.2,27.9,29.81,West,265,3.5,3.5,84,0.00,OVC,SCT,0.00,0.0,WeatherDisplay:10.37,2013-03-11 14:20:00,
2013-03-11 09:25:00,32.2,28.2,29.81,West,265,3.5,3.5,85,0.00,OVC,SCT,0.00,0.0,WeatherDisplay:10.37,2013-03-11 14:25:00,
2013-03-11 09:30:00,32.2,27.9,29.82,SSE,153,3.5,3.5,84,0.00,OVC,SCT,0.00,0.0,WeatherDisplay:10.37,2013-03-11 14:30:00,
2013-03-11 09:35:00,32.0,28.3,29.81,ESE,107,3.5,3.5,86,0.00,OVC,SCT,0.00,0.0,WeatherDisplay:10.37,2013-03-11 14:35:00,
2013-03-11 09:40:00,32.2,27.6,29.82,WNW,287,3.5,3.5,83,0.00,OVC,SCT,0.00,0.0,WeatherDisplay:10.37,2013-03-11 14:40:00,
2013-03-11 09:45:00,31.8,27.2,29.82,SW,220,3.5,3.5,83,0.00,OVC,SCT,0.00,0.0,WeatherDisplay:10.37,2013-03-11 14:45:00,
2013-03-11 09:50:00,32.0,27.7,29.82,West,265,3.5,3.5,84,0.00,OVC,SCT,0.00,0.0,WeatherDisplay:10.37,2013-03-11 14:50:00,
2013-03-11 09:55:00,31.8,27.5,29.82,WSW,243,3.5,3.5,84,0.00,OVC,SCT,0.00,0.0,WeatherDisplay:10.37,2013-03-11 14:55:00,
2013-03-11 10:00:00,31.8,27.8,29.82,West,265,3.5,3.5,85,0.00,OVC,SCT,0.00,0.0,WeatherDisplay:10.37,2013-03-11 15:00:00,
2013-03-11 10:05:00,31.5,27.5,29.82,WSW,243,3.5,3.5,85,0.00,OVC,SCT,0.00,0.0,WeatherDisplay:10.37,2013-03-11 15:05:00,
2013-03-11 10:10:00,31.8,27.8,29.83,West,265,3.5,3.5,85,0.00,OVC,SCT,0.00,0.0,WeatherDisplay:10.37,2013-03-11 15:10:00,
2013-03-11 10:15:00,31.8,27.5,29.83,West,265,3.5,3.5,84,0.00,OVC,SCT,0.00,0.0,WeatherDisplay:10.37,2013-03-11 15:15:00,
2013-03-11 10:20:00,31.6,27.4,29.83,West,265,3.5,3.5,84,0.00,OVC,SCT,0.00,0.0,WeatherDisplay:10.37,2013-03-11 15:20:00,
2013-03-11 10:25:00,31.8,27.8,29.83,WNW,287,3.5,3.5,85,0.00,OVC,SCT,0.00,0.0,WeatherDisplay:10.37,2013-03-11 15:25:00,
2013-03-11 10:30:00,31.8,27.2,29.83,WSW,243,3.5,3.5,83,0.00,OVC,SCT,0.00,0.0,WeatherDisplay:10.37,2013-03-11 15:30:00,
2013-03-11 10:35:00,31.8,27.5,29.83,WSW,243,3.5,3.5,84,0.00,OVC,SCT,0.00,0.0,WeatherDisplay:10.37,2013-03-11 15:35:00,
2013-03-11 10:40:00,31.8,27.5,29.83,WSW,243,3.5,3.5,84,0.00,OVC,SCT,0.00,0.0,WeatherDisplay:10.37,2013-03-11 15:40:00,
2013-03-11 10:45:00,31.8,27.2,29.83,West,263,3.0,3.0,83,0.00,OVC,SCT,0.00,0.0,WeatherDisplay:10.37,2013-03-11 15:45:00,
2013-03-11 10:50:00,31.8,27.0,29.83,West,260,3.0,3.0,82,0.00,OVC,SCT,0.00,0.0,WeatherDisplay:10.37,2013-03-11 15:50:00,
2013-03-11 10:55:00,31.8,27.2,29.84,West,265,3.5,3.5,83,0.00,OVC,SCT,0.00,0.0,WeatherDisplay:10.37,2013-03-11 15:55:00,
2013-03-11 11:00:00,31.8,27.2,29.84,West,265,3.5,3.5,83,0.00,OVC,SCT,0.00,0.0,WeatherDisplay:10.37,2013-03-11 16:00:00,
2013-03-11 11:05:00,32.2,27.6,29.84,West,265,3.5,3.5,83,0.00,OVC,SCT,0.00,0.0,WeatherDisplay:10.37,2013-03-11 16:05:00,
2013-03-11 11:11:00,32.0,26.8,29.84,West,265,3.5,3.5,81,0.00,OVC,SCT,0.00,0.0,WeatherDisplay:10.37,2013-03-11 16:11:00,
2013-03-11 11:16:00,31.8,27.2,29.84,WSW,243,3.5,3.5,83,0.00,OVC,SCT,0.00,0.0,WeatherDisplay:10.37,2013-03-11 16:16:00,
2013-03-11 11:21:00,31.8,27.0,29.84,WNW,287,3.5,3.5,82,0.00,OVC,SCT,0.00,0.0,WeatherDisplay:10.37,2013-03-11 16:21:00,
2013-03-11 11:26:00,32.2,27.6,29.84,West,265,3.5,3.5,83,0.00,OVC,SCT,0.00,0.0,WeatherDisplay:10.37,2013-03-11 16:26:00,
2013-03-11 11:31:00,32.0,27.1,29.84,WNW,287,3.5,3.5,82,0.00,OVC,SCT,0.00,0.0,WeatherDisplay:10.37,2013-03-11 16:31:00,
2013-03-11 11:36:00,32.2,27.3,29.84,NW,310,3.5,3.5,82,0.00,OVC,SCT,0.00,0.0,WeatherDisplay:10.37,2013-03-11 16:36:00,
2013-03-11 11:41:00,32.2,27.0,29.84,WSW,243,3.5,3.5,81,0.00,OVC,SCT,0.00,0.0,WeatherDisplay:10.37,2013-03-11 16:41:00,
2013-03-11 11:48:00,31.8,26.7,29.84,WSW,243,3.5,3.5,81,0.00,OVC,SCT,0.00,0.0,WeatherDisplay:10.37,2013-03-11 16:48:00,
2013-03-11 11:54:00,31.8,26.7,29.84,WSW,243,3.5,3.5,81,0.00,OVC,SCT,0.00,0.0,WeatherDisplay:10.37,2013-03-11 16:54:00,
2013-03-11 11:59:00,31.8,26.7,29.84,WSW,243,3.5,3.5,81,0.00,OVC,SCT,0.00,0.0,WeatherDisplay:10.37,2013-03-11 16:59:00,
2013-03-11 12:04:00,31.8,26.7,29.84,NNW,333,4.3,4.3,81,0.00,OVC,SCT,0.00,0.0,WeatherDisplay:10.37,2013-03-11 17:04:00,
2013-03-11 12:10:00,31.8,26.7,29.84,NW,310,5.1,5.1,81,0.00,OVC,SCT,0.00,0.0,WeatherDisplay:10.37,2013-03-11 17:10:00,
2013-03-11 12:15:00,31.8,26.7,29.84,NW,310,5.1,5.1,81,0.00,OVC,SCT,0.00,0.0,WeatherDisplay:10.37,2013-03-11 17:15:00,
2013-03-11 12:20:00,31.8,25.7,29.84,WNW,287,5.3,5.3,78,0.00,OVC,SCT,0.00,0.0,WeatherDisplay:10.37,2013-03-11 17:20:00,
2013-03-11 12:25:00,31.8,25.4,29.83,West,265,8.1,8.1,77,0.00,OVC,SCT,0.00,0.0,WeatherDisplay:10.37,2013-03-11 17:25:00,
2013-03-11 12:31:00,39.9,33.0,29.84,SW,220,6.9,0.0,76,0.00,OVC,SCT,0.00,0.0,WeatherDisplay:10.37,2013-03-11 17:31:00,
2013-03-11 12:36:00,34.0,21.9,29.84,WSW,243,9.2,9.2,61,0.00,OVC,SCT,0.00,0.0,WeatherDisplay:10.37,2013-03-11 17:36:00,
2013-03-11 12:42:00,32.5,23.5,29.84,West,265,5.8,5.8,69,0.00,OVC,SCT,0.00,0.0,WeatherDisplay:10.37,2013-03-11 17:42:00,
2013-03-11 12:47:00,32.4,24.0,29.84,WSW,243,5.8,5.8,71,0.00,OVC,SCT,0.00,0.0,WeatherDisplay:10.37,2013-03-11 17:47:00,
2013-03-11 12:52:00,32.5,24.5,29.84,West,265,5.8,5.8,72,0.00,OVC,SCT,0.00,0.0,WeatherDisplay:10.37,2013-03-11 17:52:00,
2013-03-11 12:57:00,32.7,25.0,29.84,NNW,333,5.8,5.8,73,0.00,OVC,SCT,0.00,0.0,WeatherDisplay:10.37,2013-03-11 17:57:00,
2013-03-11 13:02:00,32.7,25.7,29.84,WSW,243,5.8,5.8,75,0.00,OVC,SCT,0.00,0.0,WeatherDisplay:10.37,2013-03-11 18:02:00,
2013-03-11 13:07:00,33.3,26.5,29.84,WSW,243,5.8,5.8,76,0.00,OVC,SCT,0.00,0.0,WeatherDisplay:10.37,2013-03-11 18:07:00,
2013-03-11 13:12:00,32.4,25.0,29.84,West,265,5.8,5.8,74,0.00,OVC,SCT,0.00,0.0,WeatherDisplay:10.37,2013-03-11 18:12:00,
2013-03-11 13:17:00,32.9,25.5,29.84,NW,310,5.8,5.8,74,0.00,OVC,SCT,0.00,0.0,WeatherDisplay:10.37,2013-03-11 18:17:00,
2013-03-11 13:23:00,33.1,25.7,29.84,West,265,5.8,5.8,74,0.00,OVC,SCT,0.00,0.0,WeatherDisplay:10.37,2013-03-11 18:23:00,
2013-03-11 13:29:00,32.5,25.2,29.84,West,265,5.8,5.8,74,0.00,OVC,SCT,0.00,0.0,WeatherDisplay:10.37,2013-03-11 18:29:00,
2013-03-11 13:34:00,32.4,25.0,29.84,WSW,243,5.8,5.8,74,0.00,OVC,SCT,0.00,0.0,WeatherDisplay:10.37,2013-03-11 18:34:00,
2013-03-11 13:39:00,32.0,24.6,29.84,West,265,5.8,5.8,74,0.00,OVC,SCT,0.00,0.0,WeatherDisplay:10.37,2013-03-11 18:39:00,
2013-03-11 13:44:00,32.9,25.8,29.84,West,265,5.8,5.8,75,0.00,OVC,SCT,0.00,0.0,WeatherDisplay:10.37,2013-03-11 18:44:00,
2013-03-11 13:49:00,32.9,25.5,29.84,West,265,5.8,5.8,74,0.00,OVC,SCT,0.00,0.0,WeatherDisplay:10.37,2013-03-11 18:49:00,
2013-03-11 13:54:00,32.9,25.2,29.84,NW,310,5.8,5.8,73,0.00,OVC,SCT,0.00,0.0,WeatherDisplay:10.37,2013-03-11 18:54:00,
2013-03-11 13:59:00,33.8,26.7,29.84,West,265,5.8,5.8,75,0.00,OVC,SCT,0.00,0.0,WeatherDisplay:10.37,2013-03-11 18:59:00,
2013-03-11 14:05:00,33.8,26.0,29.84,West,269,6.0,6.0,73,0.00,OVC,SCT,0.00,0.0,WeatherDisplay:10.37,2013-03-11 19:05:00,
2013-03-11 14:10:00,33.0,25.0,29.84,West,259,6.0,6.0,72,0.00,OVC,SCT,0.00,0.0,WeatherDisplay:10.37,2013-03-11 19:10:00,
2013-03-11 14:15:00,33.3,26.0,29.84,WSW,255,6.0,6.0,74,0.00,OVC,SCT,0.00,0.0,WeatherDisplay:10.37,2013-03-11 19:15:00,
2013-03-11 14:20:00,33.5,26.1,29.84,WSW,254,6.0,6.0,74,0.00,OVC,SCT,0.00,0.0,WeatherDisplay:10.37,2013-03-11 19:20:00,
2013-03-11 14:25:00,33.1,25.1,29.84,WSW,258,6.0,6.0,72,0.00,OVC,SCT,0.00,0.0,WeatherDisplay:10.37,2013-03-11 19:25:00,
2013-03-11 14:30:00,33.3,25.3,29.84,West,262,6.0,6.0,72,0.00,OVC,SCT,0.00,0.0,WeatherDisplay:10.37,2013-03-11 19:30:00,
2013-03-11 14:35:00,33.6,25.8,29.84,West,269,6.0,6.0,73,0.00,OVC,SCT,0.00,0.0,WeatherDisplay:10.37,2013-03-11 19:35:00,
2013-03-11 14:40:00,33.3,25.2,29.84,West,270,6.0,6.0,72,0.00,OVC,SCT,0.00,0.0,WeatherDisplay:10.37,2013-03-11 19:40:00,
2013-03-11 14:45:00,34.0,25.9,29.84,West,262,6.0,6.0,72,0.00,OVC,SCT,0.00,0.0,WeatherDisplay:10.37,2013-03-11 19:45:00,
2013-03-11 14:50:00,34.2,26.1,29.84,West,264,6.0,6.0,72,0.00,OVC,SCT,0.00,0.0,WeatherDisplay:10.37,2013-03-11 19:50:00,
2013-03-11 14:55:00,34.3,26.2,29.84,West,271,6.0,6.0,72,0.00,OVC,SCT,0.00,0.0,WeatherDisplay:10.37,2013-03-11 19:55:00,
2013-03-11 15:00:00,34.3,26.6,29.84,West,276,6.0,6.0,73,0.00,OVC,SCT,0.00,0.0,WeatherDisplay:10.37,2013-03-11 20:00:00,
2013-03-11 15:05:00,34.9,26.8,29.84,WSW,243,5.8,5.8,72,0.00,OVC,SCT,0.00,0.0,WeatherDisplay:10.37,2013-03-11 20:05:00,
2013-03-11 15:10:00,35.4,26.9,29.84,WNW,287,5.8,5.8,71,0.00,OVC,SCT,0.00,0.0,WeatherDisplay:10.37,2013-03-11 20:10:00,
2013-03-11 15:15:00,36.3,27.8,29.84,NNW,333,5.8,5.8,71,0.00,OVC,SCT,0.00,0.0,WeatherDisplay:10.37,2013-03-11 20:15:00,
2013-03-11 15:20:00,35.8,26.6,29.84,WSW,243,5.8,5.8,69,0.00,OVC,SCT,0.00,0.0,WeatherDisplay:10.37,2013-03-11 20:20:00,
2013-03-11 15:25:00,35.8,25.9,29.84,West,265,5.8,5.8,67,0.00,OVC,SCT,0.00,0.0,WeatherDisplay:10.37,2013-03-11 20:25:00,
2013-03-11 15:30:00,36.0,26.4,29.84,WSW,243,5.8,5.8,68,0.00,OVC,SCT,0.00,0.0,WeatherDisplay:10.37,2013-03-11 20:30:00,
2013-03-11 15:35:00,36.3,26.8,29.84,West,265,5.8,5.8,68,0.00,OVC,SCT,0.00,0.0,WeatherDisplay:10.37,2013-03-11 20:35:00,
2013-03-11 15:40:00,36.3,26.4,29.84,WNW,287,5.8,5.8,67,0.00,OVC,SCT,0.00,0.0,WeatherDisplay:10.37,2013-03-11 20:40:00,
2013-03-11 15:45:00,36.1,25.9,29.84,West,265,5.8,5.8,66,0.00,OVC,SCT,0.00,0.0,WeatherDisplay:10.37,2013-03-11 20:45:00,
2013-03-11 15:50:00,36.0,26.1,29.84,West,265,5.8,5.8,67,0.00,OVC,SCT,0.00,0.0,WeatherDisplay:10.37,2013-03-11 20:50:00,
2013-03-11 15:55:00,36.0,25.7,29.84,West,265,5.8,5.8,66,0.00,OVC,SCT,0.00,0.0,WeatherDisplay:10.37,2013-03-11 20:55:00,
2013-03-11 16:00:00,36.3,27.1,29.84,ESE,107,5.8,5.8,69,0.00,OVC,SCT,0.00,0.0,WeatherDisplay:10.37,2013-03-11 21:00:00,
2013-03-11 16:05:00,36.5,26.2,29.84,WNW,287,5.8,5.8,66,0.00,OVC,SCT,0.00,0.0,WeatherDisplay:10.37,2013-03-11 21:05:00,
2013-03-11 16:10:00,36.0,26.1,29.84,WSW,243,5.8,5.8,67,0.00,OVC,SCT,0.00,0.0,WeatherDisplay:10.37,2013-03-11 21:10:00,
2013-03-11 16:15:00,36.1,26.2,29.84,WNW,287,5.8,5.8,67,0.00,OVC,SCT,0.00,0.0,WeatherDisplay:10.37,2013-03-11 21:15:00,
2013-03-11 16:20:00,36.1,26.2,29.84,WNW,287,5.8,5.8,67,0.00,OVC,SCT,0.00,0.0,WeatherDisplay:10.37,2013-03-11 21:20:00,
2013-03-11 16:25:00,36.3,26.0,29.84,WNW,287,5.8,5.8,66,0.00,OVC,SCT,0.00,0.0,WeatherDisplay:10.37,2013-03-11 21:25:00,
2013-03-11 16:30:00,36.7,26.7,29.84,WNW,287,5.8,5.8,67,0.00,OVC,SCT,0.00,0.0,WeatherDisplay:10.37,2013-03-11 21:30:00,
2013-03-11 16:35:00,36.7,26.4,29.84,West,265,5.8,5.8,66,0.00,OVC,SCT,0.00,0.0,WeatherDisplay:10.37,2013-03-11 21:35:00,
2013-03-11 16:40:00,37.0,27.5,29.84,West,265,5.8,5.8,68,0.00,OVC,SCT,0.00,0.0,WeatherDisplay:10.37,2013-03-11 21:40:00,
2013-03-11 16:45:00,36.5,26.6,29.84,North,355,5.8,5.8,67,0.00,OVC,SCT,0.00,0.0,WeatherDisplay:10.37,2013-03-11 21:45:00,
2013-03-11 16:50:00,36.5,26.6,29.84,NW,310,5.8,5.8,67,0.00,OVC,SCT,0.00,0.0,WeatherDisplay:10.37,2013-03-11 21:50:00,
2013-03-11 16:55:00,36.1,26.6,29.84,West,265,5.8,5.8,68,0.00,OVC,SCT,0.00,0.0,WeatherDisplay:10.37,2013-03-11 21:55:00,
2013-03-11 17:00:00,36.3,26.4,29.84,West,265,5.8,5.8,67,0.00,OVC,SCT,0.00,0.0,WeatherDisplay:10.37,2013-03-11 22:00:00,
2013-03-11 17:05:00,35.8,25.9,29.84,WNW,287,5.8,5.8,67,0.00,OVC,SCT,0.00,0.0,WeatherDisplay:10.37,2013-03-11 22:05:00,
2013-03-11 17:10:00,36.0,26.4,29.84,WNW,287,5.8,5.8,68,0.00,OVC,SCT,0.00,0.0,WeatherDisplay:10.37,2013-03-11 22:10:00,
2013-03-11 17:15:00,35.8,25.5,29.84,WSW,243,5.8,5.8,66,0.00,OVC,SCT,0.00,0.0,WeatherDisplay:10.37,2013-03-11 22:15:00,
2013-03-11 17:20:00,36.0,25.7,29.84,WNW,287,5.8,5.8,66,0.00,OVC,SCT,0.00,0.0,WeatherDisplay:10.37,2013-03-11 22:20:00,
2013-03-11 17:25:00,36.3,26.0,29.84,NW,310,5.8,5.8,66,0.00,OVC,SCT,0.00,0.0,WeatherDisplay:10.37,2013-03-11 22:25:00,
2013-03-11 17:30:00,36.0,25.7,29.84,West,265,5.8,5.8,66,0.00,OVC,SCT,0.00,0.0,WeatherDisplay:10.37,2013-03-11 22:30:00,
2013-03-11 17:35:00,35.8,25.5,29.84,WNW,287,5.8,5.8,66,0.00,OVC,SCT,0.00,0.0,WeatherDisplay:10.37,2013-03-11 22:35:00,
2013-03-11 17:40:00,35.6,25.4,29.84,WSW,243,5.8,5.8,66,0.00,OVC,SCT,0.00,0.0,WeatherDisplay:10.37,2013-03-11 22:40:00,
2013-03-11 17:45:00,35.4,24.8,29.84,WNW,287,5.8,5.8,65,0.00,OVC,SCT,0.00,0.0,WeatherDisplay:10.37,2013-03-11 22:45:00,
2013-03-11 17:50:00,35.4,25.2,29.84,WNW,287,5.8,5.8,66,0.00,OVC,SCT,0.00,0.0,WeatherDisplay:10.37,2013-03-11 22:50:00,
2013-03-11 17:55:00,35.8,25.5,29.84,West,265,5.8,5.8,66,0.00,OVC,SCT,0.00,0.0,WeatherDisplay:10.37,2013-03-11 22:55:00,
2013-03-11 18:00:00,35.1,24.1,29.84,West,265,5.8,5.8,64,0.00,CLR,SCT,0.00,0.0,WeatherDisplay:10.37,2013-03-11 23:00:00,
2013-03-11 18:05:00,35.1,24.1,29.84,West,265,5.8,5.8,64,0.00,CLR,SCT,0.00,0.0,WeatherDisplay:10.37,2013-03-11 23:05:00,
2013-03-11 18:10:00,35.4,23.7,29.84,WNW,287,5.8,5.8,62,0.00,CLR,SCT,0.00,0.0,WeatherDisplay:10.37,2013-03-11 23:10:00,
2013-03-11 18:15:00,35.2,23.9,29.84,West,265,5.8,5.8,63,0.00,CLR,SCT,0.00,0.0,WeatherDisplay:10.37,2013-03-11 23:15:00,
2013-03-11 18:20:00,35.4,24.4,29.84,West,265,5.8,5.8,64,0.00,CLR,SCT,0.00,0.0,WeatherDisplay:10.37,2013-03-11 23:20:00,
2013-03-11 18:25:00,35.8,24.4,29.84,WNW,287,5.8,5.8,63,0.00,CLR,SCT,0.00,0.0,WeatherDisplay:10.37,2013-03-11 23:25:00,
2013-03-11 18:30:00,35.4,24.4,29.84,NW,310,5.8,5.8,64,0.00,CLR,SCT,0.00,0.0,WeatherDisplay:10.37,2013-03-11 23:30:00,
2013-03-11 18:35:00,36.0,26.1,29.84,NW,310,5.8,5.8,67,0.00,CLR,SCT,0.00,0.0,WeatherDisplay:10.37,2013-03-11 23:35:00,
2013-03-11 18:40:00,36.5,28.0,29.84,NW,310,5.8,5.8,71,0.00,CLR,SCT,0.00,0.0,WeatherDisplay:10.37,2013-03-11 23:40:00,
2013-03-11 18:45:00,36.3,26.0,29.84,NW,310,5.8,5.8,66,0.00,CLR,SCT,0.00,0.0,WeatherDisplay:10.37,2013-03-11 23:45:00,
2013-03-11 18:50:00,36.0,25.0,29.84,NW,310,5.8,5.8,64,0.00,CLR,SCT,0.00,0.0,WeatherDisplay:10.37,2013-03-11 23:50:00,
2013-03-11 18:55:00,36.0,25.7,29.84,NW,310,5.8,5.8,66,0.00,CLR,SCT,0.00,0.0,WeatherDisplay:10.37,2013-03-11 23:55:00,
2013-03-11 19:01:00,36.0,25.3,29.84,NW,310,5.8,5.8,65,0.00,CLR,SCT,0.00,0.0,WeatherDisplay:10.37,2013-03-12 00:01:00,
2013-03-11 19:07:00,35.8,25.2,29.84,West,265,5.8,5.8,65,0.00,CLR,SCT,0.00,0.0,WeatherDisplay:10.37,2013-03-12 00:07:00,
2013-03-11 19:12:00,35.8,25.5,29.84,NW,310,5.8,5.8,66,0.00,CLR,SCT,0.00,0.0,WeatherDisplay:10.37,2013-03-12 00:12:00,
2013-03-11 19:17:00,36.0,25.3,29.84,WNW,287,5.8,5.8,65,0.00,CLR,SCT,0.00,0.0,WeatherDisplay:10.37,2013-03-12 00:17:00,
2013-03-11 19:22:00,35.8,26.2,29.84,NW,310,5.8,5.8,68,0.00,CLR,SCT,0.00,0.0,WeatherDisplay:10.37,2013-03-12 00:22:00,
2013-03-11 19:27:00,36.0,26.1,29.84,NW,310,5.8,5.8,67,0.00,CLR,SCT,0.00,0.0,WeatherDisplay:10.37,2013-03-12 00:27:00,
2013-03-11 19:32:00,36.0,26.4,29.84,NW,310,5.8,5.8,68,0.00,CLR,SCT,0.00,0.0,WeatherDisplay:10.37,2013-03-12 00:32:00,
2013-03-11 19:37:00,35.4,29.2,29.84,WNW,287,5.8,5.8,78,0.00,CLR,SCT,0.00,0.0,WeatherDisplay:10.37,2013-03-12 00:37:00,
2013-03-11 19:43:00,35.8,25.5,29.84,WNW,287,5.8,5.8,66,0.00,OVC,SCT,0.00,0.0,WeatherDisplay:10.37,2013-03-12 00:43:00,
2013-03-11 19:48:00,35.4,25.2,29.84,WNW,287,5.8,5.8,66,0.00,OVC,SCT,0.00,0.0,WeatherDisplay:10.37,2013-03-12 00:48:00,
2013-03-11 19:53:00,35.1,24.8,29.84,WNW,287,5.8,5.8,66,0.00,OVC,SCT,0.00,0.0,WeatherDisplay:10.37,2013-03-12 00:53:00,
2013-03-11 19:58:00,35.2,25.4,29.84,WNW,287,5.8,5.8,67,0.00,OVC,SCT,0.00,0.0,WeatherDisplay:10.37,2013-03-12 00:58:00,
2013-03-11 20:03:00,35.6,26.1,29.84,NNW,333,5.8,5.8,68,0.00,OVC,SCT,0.00,0.0,WeatherDisplay:10.37,2013-03-12 01:03:00,
2013-03-11 20:08:00,35.8,26.2,29.84,NNW,333,5.8,5.8,68,0.00,OVC,SCT,0.00,0.0,WeatherDisplay:10.37,2013-03-12 01:08:00,
2013-03-11 20:13:00,35.1,24.8,29.84,WSW,243,5.8,5.8,66,0.00,OVC,SCT,0.00,0.0,WeatherDisplay:10.37,2013-03-12 01:13:00,
2013-03-11 20:18:00,35.4,25.9,29.84,WNW,287,5.8,5.8,68,0.00,OVC,SCT,0.00,0.0,WeatherDisplay:10.37,2013-03-12 01:18:00,
2013-03-11 20:23:00,35.1,25.2,29.84,WNW,287,5.8,5.8,67,0.00,OVC,SCT,0.00,0.0,WeatherDisplay:10.37,2013-03-12 01:23:00,
2013-03-11 20:28:00,35.1,25.2,29.84,WNW,287,5.8,5.8,67,0.00,OVC,SCT,0.00,0.0,WeatherDisplay:10.37,2013-03-12 01:28:00,
2013-03-11 20:33:00,35.1,25.6,29.84,WNW,287,5.8,5.8,68,0.00,OVC,SCT,0.00,0.0,WeatherDisplay:10.37,2013-03-12 01:33:00,
2013-03-11 20:38:00,35.1,25.9,29.84,WNW,287,5.8,5.8,69,0.00,OVC,SCT,0.00,0.0,WeatherDisplay:10.37,2013-03-12 01:38:00,
2013-03-11 20:43:00,34.9,25.4,29.84,WNW,287,5.8,5.8,68,0.00,OVC,SCT,0.00,0.0,WeatherDisplay:10.37,2013-03-12 01:43:00,
2013-03-11 20:48:00,34.9,26.1,29.84,WNW,287,5.8,5.8,70,0.00,OVC,SCT,0.00,0.0,WeatherDisplay:10.37,2013-03-12 01:48:00,
2013-03-11 20:53:00,34.9,26.1,29.84,WNW,287,5.8,5.8,70,0.00,OVC,SCT,0.00,0.0,WeatherDisplay:10.37,2013-03-12 01:53:00,
2013-03-11 20:59:00,34.5,24.7,29.84,WNW,287,5.8,5.8,67,0.00,OVC,SCT,0.00,0.0,WeatherDisplay:10.37,2013-03-12 01:59:00,
2013-03-11 21:04:00,34.5,25.0,29.84,WNW,287,5.8,5.8,68,0.00,OVC,SCT,0.00,0.0,WeatherDisplay:10.37,2013-03-12 02:04:00,
2013-03-11 21:09:00,34.3,25.2,29.84,WNW,287,5.8,5.8,69,0.00,OVC,SCT,0.00,0.0,WeatherDisplay:10.37,2013-03-12 02:09:00,
2013-03-11 21:14:00,34.0,24.5,29.84,WNW,287,5.8,5.8,68,0.00,OVC,SCT,0.00,0.0,WeatherDisplay:10.37,2013-03-12 02:14:00,
2013-03-11 21:19:00,34.0,24.5,29.84,NW,310,5.8,5.8,68,0.00,OVC,SCT,0.00,0.0,WeatherDisplay:10.37,2013-03-12 02:19:00,
2013-03-11 21:24:00,34.2,25.7,29.84,NW,310,5.8,5.8,71,0.00,OVC,SCT,0.00,0.0,WeatherDisplay:10.37,2013-03-12 02:24:00,
2013-03-11 21:29:00,34.2,25.0,29.84,NNW,333,5.8,5.8,69,0.00,OVC,SCT,0.00,0.0,WeatherDisplay:10.37,2013-03-12 02:29:00,
2013-03-11 21:35:00,33.8,24.3,29.84,NW,318,6.0,6.0,68,0.00,OVC,SCT,0.00,0.0,WeatherDisplay:10.37,2013-03-12 02:35:00,
2013-03-11 21:40:00,33.6,24.6,29.84,NW,310,6.0,6.0,69,0.00,OVC,SCT,0.00,0.0,WeatherDisplay:10.37,2013-03-12 02:40:00,
2013-03-11 21:45:00,33.7,25.0,29.84,NW,310,6.0,6.0,70,0.00,OVC,SCT,0.00,0.0,WeatherDisplay:10.37,2013-03-12 02:45:00,
2013-03-11 21:50:00,33.7,25.3,29.84,NW,310,6.0,6.0,71,0.00,OVC,SCT,0.00,0.0,WeatherDisplay:10.37,2013-03-12 02:50:00,
2013-03-11 21:55:00,33.6,24.9,29.84,NW,310,6.0,6.0,70,0.00,OVC,SCT,0.00,0.0,WeatherDisplay:10.37,2013-03-12 02:55:00,
2013-03-11 22:00:00,33.6,25.2,29.84,NW,310,6.0,6.0,71,0.00,OVC,SCT,0.00,0.0,WeatherDisplay:10.37,2013-03-12 03:00:00,
2013-03-11 22:05:00,33.2,24.5,29.84,NW,310,6.0,6.0,70,0.00,OVC,SCT,0.00,0.0,WeatherDisplay:10.37,2013-03-12 03:05:00,
2013-03-11 22:10:00,33.4,25.7,29.84,NW,310,6.0,6.0,73,0.00,OVC,SCT,0.00,0.0,WeatherDisplay:10.37,2013-03-12 03:10:00,
2013-03-11 22:15:00,33.1,24.7,29.84,NW,310,6.0,6.0,71,0.00,OVC,SCT,0.00,0.0,WeatherDisplay:10.37,2013-03-12 03:15:00,
2013-03-11 22:20:00,33.2,25.2,29.84,NW,310,6.0,6.0,72,0.00,OVC,SCT,0.00,0.0,WeatherDisplay:10.37,2013-03-12 03:20:00,
2013-03-11 22:25:00,33.2,25.5,29.84,NW,310,6.0,6.0,73,0.00,OVC,SCT,0.00,0.0,WeatherDisplay:10.37,2013-03-12 03:25:00,
2013-03-11 22:30:00,33.3,25.5,29.84,NW,310,6.0,6.0,73,0.00,OVC,SCT,0.00,0.0,WeatherDisplay:10.37,2013-03-12 03:30:00,
2013-03-11 22:35:00,32.7,24.3,29.84,NW,310,5.8,5.8,71,0.00,OVC,SCT,0.00,0.0,WeatherDisplay:10.37,2013-03-12 03:35:00,
2013-03-11 22:40:00,32.7,25.3,29.84,NW,310,5.8,5.8,74,0.00,OVC,SCT,0.00,0.0,WeatherDisplay:10.37,2013-03-12 03:40:00,
2013-03-11 22:45:00,32.4,24.3,29.84,NW,310,5.8,5.8,72,0.00,OVC,SCT,0.00,0.0,WeatherDisplay:10.37,2013-03-12 03:45:00,
2013-03-11 22:50:00,32.2,24.5,29.84,NW,310,5.8,5.8,73,0.00,OVC,SCT,0.00,0.0,WeatherDisplay:10.37,2013-03-12 03:50:00,
2013-03-11 22:55:00,32.0,24.6,29.84,NW,310,5.8,5.8,74,0.00,OVC,SCT,0.00,0.0,WeatherDisplay:10.37,2013-03-12 03:55:00,
2013-03-11 23:00:00,32.1,24.8,29.84,NW,310,6.0,6.0,74,0.00,OVC,SCT,0.00,0.0,WeatherDisplay:10.37,2013-03-12 04:00:00,
2013-03-11 23:03:00,32.2,24.8,29.84,NW,310,5.8,5.8,74,0.00,OVC,SCT,0.00,0.0,WeatherDisplay:10.37,2013-03-12 04:03:00,
2013-03-11 23:04:00,32.2,24.8,29.84,NW,310,5.8,5.8,74,0.00,OVC,SCT,0.00,0.0,WeatherDisplay:10.37,2013-03-12 04:04:00,
2013-03-11 23:09:00,31.8,24.5,29.84,NW,310,5.8,5.8,74,0.00,OVC,SCT,0.00,0.0,WeatherDisplay:10.37,2013-03-12 04:09:00,
2013-03-11 23:14:00,32.0,24.6,29.84,NW,310,5.8,5.8,74,0.00,OVC,SCT,0.00,0.0,WeatherDisplay:10.37,2013-03-12 04:14:00,
2013-03-11 23:15:00,32.0,24.7,29.84,NW,310,6.0,6.0,74,0.00,OVC,SCT,0.00,0.0,WeatherDisplay:10.37,2013-03-12 04:15:00,
2013-03-11 23:20:00,32.2,25.5,29.84,NW,310,6.0,6.0,76,0.00,OVC,SCT,0.00,0.0,WeatherDisplay:10.37,2013-03-12 04:20:00,
2013-03-11 23:25:00,32.4,26.9,29.84,NW,310,6.0,6.0,80,0.00,OVC,SCT,0.00,0.0,WeatherDisplay:10.37,2013-03-12 04:25:00,
2013-03-11 23:30:00,32.4,27.2,29.84,NW,310,6.0,6.0,81,0.00,OVC,SCT,0.00,0.0,WeatherDisplay:10.37,2013-03-12 04:30:00,
2013-03-11 23:35:00,32.2,25.1,29.84,NW,310,6.0,6.0,75,0.00,OVC,SCT,0.00,0.0,WeatherDisplay:10.37,2013-03-12 04:35:00,
2013-03-11 23:40:00,32.2,25.8,29.84,NW,310,6.0,6.0,77,0.00,OVC,SCT,0.00,0.0,WeatherDisplay:10.37,2013-03-12 04:40:00,
2013-03-11 23:45:00,32.2,26.4,29.84,NW,310,6.0,6.0,79,0.00,OVC,SCT,0.00,0.0,WeatherDisplay:10.37,2013-03-12 04:45:00,
2013-03-11 23:50:00,32.2,26.7,29.84,NW,310,6.0,6.0,80,0.00,OVC,SCT,0.00,0.0,WeatherDisplay:10.37,2013-03-12 04:50:00,
2013-03-11 23:55:00,32.2,26.4,29.84,NW,310,6.0,6.0,79,0.00,OVC,SCT,0.00,0.0,WeatherDisplay:10.37,2013-03-12 04:55:00,